User: anonymous   Login
Location: Kailua
(21.4020°N, 157.7390°W)
Time: 08:55:02
(UTC-10:00)
Language:

Cosmos 2221 Rocket - Orbit

View from above orbital plane
View from above orbital plane
View from above satellite
View from above satellite

Ground track
Ground track

The orbit data is extracted from the following two-line orbital elements,

1 22237U 92080B   15241.08537265  .00000211  00000-0  25849-4 0  9990
2 22237 082.5138 009.8497 0019432 193.0558 290.9521 14.78171800226210
Epoch (UTC): 29 August 2015 02:02:56
Eccentricity: 0.0019432
inclination: 82.5138°
perigee height: 621 km
apogee height: 649 km
right ascension of ascending node: 9.8497°
argument of perigee: 193.0558°
revolutions per day: 14.78171800
mean anomaly at epoch: 290.9521°
orbit number at epoch: 22621

The dashed part of the orbit path shows where the satellite is in the earth's shadow,  

DLR